{"data":{"norad_id":59716,"epoch":"2026-05-25T03:54:10.097568Z","epoch_age_seconds":58229,"freshness":"FRESH","line1":"1 59716U 24088J   26145.16261687  .00003211  00000+0  31345-4 0  9991","line2":"2 59716  53.1572 309.2476 0001132  71.9602 288.1540 15.69717831118282","mean_motion":15.69717831,"eccentricity":0.0001132,"inclination_deg":53.1572,"raan_deg":309.2476,"arg_perigee_deg":71.9602,"mean_anomaly_deg":288.154,"bstar":3.1345e-5,"rev_number":11828,"period_min":91.73623256115,"perigee_km":358.94161754867,"apogee_km":360.46706482831,"semimajor_km":6737.8413411885,"source":"CELESTRAK","updated_at":"2026-05-25T13:38:19.047305Z"}}